Leesburg, VA

7:29 AM EDT on October 22, 2019 (GMT -0400)
Leesburg Executive

Weather History for KJYO - May, 2019

Change the Weather History Date:

Sunday, May 19, 2019

  Actual Average (KIAD) Record (KIAD)
Temperature  
Mean Temperature 78 °F -  
Max Temperature 91 °F 76 °F 92 °F (1997)
Min Temperature 64 °F 52 °F 36 °F (2002)
Cooling Degree Days 12    
Growing Degree Days 28 (Base 50)    
Moisture  
Dew Point 68 °F    
Average Humidity 76    
Maximum Humidity 100    
Minimum Humidity 46    
Precipitation  
Precipitation 0.00 in - - ()
Sea Level Pressure  
Sea Level Pressure 29.98 in    
Wind  
Wind Speed 7 mph (South)    
Max Wind Speed 21 mph    
Max Gust Speed 30 mph    
Visibility 10 miles    
Events Thunderstorm    
Averages and records for this station are not official NWS values.
T = Trace of Precipitation, MM = Missing Value Source: NWS Daily Summary

Daily Weather History Graph

Daily Weather History Graph

Search for Another Location

Airport or City:

Astronomy

May. 19, 2019 Rise Set
Actual Time 5:54 AM EDT 8:19 PM EDT
Civil Twilight 5:23 AM EDT 8:50 PM EDT
Nautical Twilight 4:46 AM EDT 9:28 PM EDT
Astronomical Twilight 4:04 AM EDT 10:10 PM EDT
Moon 9:17 PM EDT (5/19) 6:37 AM EDT (5/19)
Length of Visible Light 15h 26m
Length of Day
14h 25m
Full, 99% of the Moon is Illuminated
May 19
Full
May 26
Last Quarter
Jun 3
New
Jun 10
First Quarter
Jun 17
Full

Hourly Weather History & Observations

Time (EDT) Temp. Heat Index Dew Point Humidity Pressure Visibility Wind Dir Wind Speed Gust Speed Precip Events Conditions
12:15 AM 69.8 °F - 68.0 °F 94% 30.04 in 10.0 mi South 3.5 mph - N/A   Scattered Clouds
12:35 AM 69.8 °F - 68.0 °F 94% 30.03 in 10.0 mi SE 4.6 mph - N/A   Clear
12:55 AM 69.8 °F - 68.0 °F 94% 30.04 in 10.0 mi Calm Calm - N/A   Clear
1:15 AM 69.8 °F - 66.2 °F 88% 30.04 in 7.0 mi ESE 8.1 mph - N/A   Scattered Clouds
1:35 AM 69.8 °F - 66.2 °F 88% 30.04 in 10.0 mi SE 5.8 mph - N/A   Clear
1:55 AM 69.8 °F - 68.0 °F 94% 30.04 in 10.0 mi SSE 4.6 mph - N/A   Clear
2:15 AM 69.8 °F - 68.0 °F 94% 30.03 in 10.0 mi SSE 5.8 mph - N/A   Clear
2:35 AM 69.8 °F - 66.2 °F 88% 30.03 in 10.0 mi SSE 6.9 mph - N/A   Clear
2:55 AM 68.0 °F - 64.4 °F 88% 30.03 in 10.0 mi SSE 6.9 mph - N/A   Clear
3:15 AM 68.0 °F - 64.4 °F 88% 30.03 in 10.0 mi SSE 6.9 mph - N/A   Clear
3:35 AM 68.0 °F - 64.4 °F 88% 30.04 in 10.0 mi South 8.1 mph - N/A   Scattered Clouds
3:55 AM 68.0 °F - 64.4 °F 88% 30.04 in 10.0 mi SSE 6.9 mph - N/A   Mostly Cloudy
4:15 AM 66.2 °F - 64.4 °F 94% 30.04 in 10.0 mi South 6.9 mph - N/A   Mostly Cloudy
4:35 AM 66.2 °F - 64.4 °F 94% 30.04 in 10.0 mi South 5.8 mph - N/A   Scattered Clouds
4:55 AM 64.4 °F - 64.4 °F 100% 30.04 in 10.0 mi SSW 3.5 mph - N/A   Scattered Clouds
5:15 AM 64.4 °F - 64.4 °F 100% 30.05 in 10.0 mi South 4.6 mph - N/A   Overcast
5:35 AM 64.4 °F - 64.4 °F 100% 30.05 in 10.0 mi South 4.6 mph - N/A   Overcast
5:55 AM 64.4 °F - 64.4 °F 100% 30.05 in 10.0 mi South 4.6 mph - N/A   Overcast
6:15 AM 64.4 °F - 64.4 °F 100% 30.05 in 10.0 mi South 4.6 mph - N/A   Overcast
6:35 AM 64.4 °F - 64.4 °F 100% 30.05 in 10.0 mi South 5.8 mph - N/A   Overcast
6:55 AM 64.4 °F - 64.4 °F 100% 30.05 in 10.0 mi South 6.9 mph - N/A   Overcast
7:15 AM 66.2 °F - 64.4 °F 94% 30.05 in 10.0 mi South 5.8 mph - N/A   Overcast
7:35 AM 66.2 °F - 64.4 °F 94% 30.05 in 10.0 mi South 6.9 mph - N/A   Overcast
7:55 AM 66.2 °F - 64.4 °F 94% 30.05 in 10.0 mi South 6.9 mph - N/A   Overcast
8:15 AM 66.2 °F - 64.4 °F 94% 30.05 in 10.0 mi South 6.9 mph - N/A   Overcast
8:35 AM 66.2 °F - 64.4 °F 94% 30.05 in 10.0 mi South 4.6 mph - N/A   Overcast
8:55 AM 68.0 °F - 64.4 °F 88% 30.05 in 7.0 mi South 3.5 mph - N/A   Overcast
9:15 AM 68.0 °F - 66.2 °F 94% 30.05 in 7.0 mi SSE 4.6 mph - N/A   Overcast
9:35 AM 68.0 °F - 66.2 °F 94% 30.05 in 7.0 mi SE 4.6 mph - N/A   Overcast
9:55 AM 69.8 °F - 68.0 °F 94% 30.05 in 10.0 mi SSE 5.8 mph - N/A   Overcast
10:15 AM 69.8 °F - 68.0 °F 94% 30.05 in 10.0 mi South 5.8 mph - N/A   Overcast
10:35 AM 71.6 °F - 68.0 °F 88% 30.05 in 10.0 mi South 4.6 mph - N/A   Overcast
10:55 AM 71.6 °F - 68.0 °F 88% 30.04 in 10.0 mi South 3.5 mph - N/A   Mostly Cloudy
11:15 AM 75.2 °F - 68.0 °F 78% 30.04 in 10.0 mi South 5.8 mph - N/A   Scattered Clouds
11:35 AM 77.0 °F - 69.8 °F 78% 30.03 in 10.0 mi South 4.6 mph - N/A   Scattered Clouds
11:55 AM 77.0 °F - 69.8 °F 78% 30.03 in 10.0 mi South 5.8 mph - N/A   Clear
12:15 PM 78.8 °F - 69.8 °F 74% 30.02 in 10.0 mi South 6.9 mph - N/A   Clear
12:35 PM 78.8 °F - 69.8 °F 74% 30.02 in 10.0 mi South 5.8 mph - N/A   Clear
12:55 PM 82.4 °F 87.2 °F 71.6 °F 70% 30.00 in 10.0 mi SSW 5.8 mph - N/A   Clear
1:15 PM 84.2 °F 89.6 °F 71.6 °F 66% 30.00 in 10.0 mi South 9.2 mph - N/A   Clear
1:35 PM 86.0 °F 91.8 °F 71.6 °F 62% 29.99 in 10.0 mi SSW 9.2 mph - N/A   Clear
1:55 PM 86.0 °F 91.8 °F 71.6 °F 62% 29.98 in 10.0 mi South 9.2 mph - N/A   Clear
2:15 PM 87.8 °F 93.8 °F 71.6 °F 58% 29.96 in 10.0 mi South 15.0 mph - N/A   Clear
2:35 PM 89.6 °F 96.2 °F 71.6 °F 55% 29.95 in 10.0 mi SSW 12.7 mph - N/A   Clear
2:55 PM 89.6 °F 96.2 °F 71.6 °F 55% 29.94 in 10.0 mi SSW 11.5 mph 18.4 mph N/A   Clear
3:15 PM 91.4 °F 98.4 °F 71.6 °F 52% 29.93 in 10.0 mi South 11.5 mph 16.1 mph N/A   Clear
3:35 PM 91.4 °F 98.4 °F 71.6 °F 52% 29.93 in 10.0 mi South 15.0 mph 24.2 mph N/A   Clear
3:55 PM 91.4 °F 95.4 °F 68.0 °F 46% 29.92 in 10.0 mi SSW 18.4 mph 23.0 mph N/A Thunderstorm Scattered Clouds
4:15 PM 89.6 °F 93.4 °F 68.0 °F 49% 29.91 in 10.0 mi SSW 15.0 mph 25.3 mph N/A   Scattered Clouds
4:35 PM 91.4 °F 96.8 °F 69.8 °F 49% 29.90 in 10.0 mi SSW 15.0 mph 20.7 mph N/A   Clear
4:55 PM 89.6 °F 93.4 °F 68.0 °F 49% 29.90 in 10.0 mi SSW 12.7 mph 21.9 mph N/A   Clear
5:15 PM 89.6 °F 94.7 °F 69.8 °F 52% 29.89 in 10.0 mi South 12.7 mph 21.9 mph N/A   Clear
5:35 PM 89.6 °F 93.4 °F 68.0 °F 49% 29.89 in 10.0 mi SSW 20.7 mph 29.9 mph N/A   Clear
5:55 PM 89.6 °F 93.4 °F 68.0 °F 49% 29.88 in 10.0 mi South 12.7 mph 24.2 mph N/A   Clear
6:15 PM 89.6 °F 93.4 °F 68.0 °F 49% 29.87 in 10.0 mi South 15.0 mph 20.7 mph N/A   Clear
6:35 PM 89.6 °F 93.4 °F 68.0 °F 49% 29.87 in 10.0 mi South 16.1 mph 23.0 mph N/A   Clear
6:55 PM 87.8 °F 91.4 °F 68.0 °F 52% 29.88 in 10.0 mi SSW 11.5 mph 21.9 mph N/A   Clear
7:15 PM 86.0 °F 89.4 °F 68.0 °F 55% 29.88 in 10.0 mi South 10.4 mph - N/A   Clear
7:55 PM 86.0 °F 89.4 °F 68.0 °F 55% 29.88 in 10.0 mi SSW 10.4 mph 18.4 mph N/A   Clear
8:15 PM 84.2 °F 87.3 °F 68.0 °F 58% 29.89 in 10.0 mi SSW 8.1 mph - N/A   Clear
8:35 PM 82.4 °F 85.4 °F 68.0 °F 62% 29.88 in 10.0 mi SSW 6.9 mph - N/A   Clear
8:55 PM 82.4 °F 85.4 °F 68.0 °F 62% 29.89 in 10.0 mi South 8.1 mph - N/A   Clear
9:15 PM 82.4 °F 85.4 °F 68.0 °F 62% 29.89 in 10.0 mi South 9.2 mph - N/A   Clear
9:35 PM 82.4 °F 85.4 °F 68.0 °F 62% 29.90 in 10.0 mi South 10.4 mph - N/A   Clear
9:55 PM 80.6 °F 83.2 °F 68.0 °F 65% 29.90 in 10.0 mi SSW 9.2 mph 16.1 mph N/A Thunderstorm Clear
10:15 PM 80.6 °F 83.2 °F 68.0 °F 65% 29.91 in 10.0 mi South 8.1 mph - N/A   Clear
10:35 PM 80.6 °F 83.2 °F 68.0 °F 65% 29.91 in 10.0 mi SSW 10.4 mph 18.4 mph N/A   Clear
10:55 PM 80.6 °F 83.2 °F 68.0 °F 65% 29.91 in 10.0 mi SSW 9.2 mph 19.6 mph N/A   Clear
11:15 PM 80.6 °F 83.2 °F 68.0 °F 65% 29.91 in 10.0 mi SSW 12.7 mph - N/A   Clear
11:35 PM 78.8 °F - 68.0 °F 69% 29.91 in 10.0 mi SSW 10.4 mph - N/A   Clear
11:55 PM 78.8 °F - 68.0 °F 69% 29.90 in 10.0 mi SSW 9.2 mph - N/A   Clear